Content
SEND FEEDBACK

Daily
Averages
Monthly
Summary
United States of America

WILLIAMSTOWN, WEST VIRGINIA


Home > North America > United States > West Virginia
Elevation: 784 feet     Latitude: 39 21N     Longitude: 081 26W

WEATHER
 
SELECT A DAY
Number of Records: 206,482;   Date Range: 1/1/95 - 8/28/14
 
SHARE

PRINT THIS DATA

[ ← Previous Day ]
WEATHER ALMANAC - MARCH 6, 2014
[ Next Day → ]
[ °C ]   °F
Weather ElementAverageHighLow
Temperature33.3 °F45 °F (2:53 pm)21 °F (5:53 am)
Dewpoint17.3 °F23 °F (3:53 pm)10.9 °F (3:53 am)
Humidity52.8 %66 % (7:53 am)40 % (2:53 pm)
Barometer30.29 in30.38 in (6:53 am)30.17 in (11:53 pm)
Wind Speed6.5 mph10.4 mph (1:53 am)
Weather ElementAverage
Visibility10 mi
Wind DirectionENE (54.3 °)

Weather ElementTotal
Precipitation---
Heating Degree Days32 (Base 65)
Averaged from 23 records on March 6, 2014
WEATHER CONDITIONS BREAKOUT
WIND DIRECTION BREAKOUT
WEATHER BY HOUR - MARCH 6, 2014
[ °C ]   °F
Local TimeTemperatureDewpointHumidityBarometerVisibilityWind DirectionWind SpeedGust SpeedPrecipitationEventsConditions
1:53 AM24.1 °F12.9 °F62 %30.37 in10.0 miNE (40°)10.4 mphMostly Cloudy
2:53 AM24.1 °F12.0 °F60 %30.35 in10.0 miNE (40°)10.4 mphMostly Cloudy
3:53 AM23.0 °F10.9 °F60 %30.34 in10.0 miNorth (10°)5.8 mphPartly Cloudy
4:53 AM21.9 °F10.9 °F63 %30.36 in10.0 miNNE (20°)5.8 mphScattered Clouds
5:53 AM21.0 °F10.9 °F65 %30.36 in10.0 miNE (40°)6.9 mphClear
6:53 AM21.0 °F10.9 °F65 %30.38 in10.0 miNNE (20°)6.9 mphClear
7:53 AM21.9 °F12.0 °F66 %30.38 in10.0 miNE (40°)6.9 mphClear
8:53 AM27.0 °F14.0 °F58 %30.38 in10.0 miEast (80°)5.8 mphClear
9:53 AM30.0 °F15.1 °F54 %30.36 in10.0 miEast (100°)8.1 mphClear
10:53 AM35.1 °F17.1 °F48 %30.34 in10.0 miNE (50°)6.9 mphClear
11:53 AM37.0 °F17.1 °F44 %30.33 in10.0 miESE (110°)4.6 mphClear
12:53 PM42.1 °F21.0 °F43 %30.29 in10.0 miENE (70°)8.1 mphClear
1:53 PM44.1 °F21.9 °F42 %30.25 in10.0 miEast (80°)8.1 mphClear
2:53 PM45.0 °F21.9 °F40 %30.22 in10.0 miNE (50°)6.9 mphClear
3:53 PM45.0 °F23.0 °F42 %30.22 in10.0 miNNE (30°)8.1 mphClear
4:53 PM45.0 °F23.0 °F42 %30.21 in10.0 miNE (50°)8.1 mphClear
5:53 PM42.1 °F23.0 °F47 %30.21 in10.0 miNE (50°)6.9 mphClear
6:53 PM39.0 °F21.9 °F50 %30.22 in10.0 miNE (40°)5.8 mphClear
7:53 PM39.0 °F19.9 °F46 %30.22 in10.0 miENE (60°)6.9 mphClear
8:53 PM37.0 °F19.9 °F50 %30.22 in10.0 miENE (70°)4.6 mphClear
9:53 PM37.0 °F19.0 °F48 %30.20 in10.0 miENE (70°)3.5 mphClear
10:53 PM34.0 °F19.0 °F54 %30.20 in10.0 miCalmClear
11:53 PM30.0 °F19.9 °F66 %30.17 in10.0 miSE (130°)4.6 mphClear
Hourly data recorded from KPKB, located miles away from Williamstown, West Virginia







STORIES FROM OUR PARTNERS